Regional Weather Roundup
Issued by NWS Charleston, SC

Current Version | Previous Version | Graphics & Text | Print | Product List | Glossary On
Versions: 1 2 3 4 5 6 7 8 9 10 11 12 13 14 15 16 17 18 19 20 21 22 23 24 25 26 27 28 29 30 31 32 33 34 35 36 37 38 39 40 41 42 43 44 45 46 47 48 49 50
897
ASUS42 KCHS 271127
RWRCHS

REGIONAL WEATHER ROUNDUP
NATIONAL WEATHER SERVICE CHARLESTON SC
700 AM EDT THU APR 27 2017

NOTE: "FAIR" INDICATES FEW OR NO CLOUDS BELOW 12,000 FEET WITH NO
SIGNIFICANT WEATHER AND/OR OBSTRUCTIONS TO VISIBILITY.

NOT ALL STATIONS ARE QUALITY CONTROLLED. USE DATA WITH CAUTION...
ESPECIALLY DEWPOINT OBSERVATIONS.

SCZ027-030-031-034>040-042>050-271200-
...SOUTHEAST SOUTH CAROLINA...

CITY           SKY/WX    TMP DP  RH WIND       PRES   REMARKS
N CHARLESTON   CLEAR     64  62  93 S6        29.89R
WATERFRONT PRK   N/A     71  67  87 S7        29.87S
JOHNS ISLAND   PTSUNNY   72  68  88 S6        29.90R
PINOPOLIS        N/A     64  64 100 VRB2      29.79S
MONCKS CORNER  FAIR      59  57  94 CALM      29.90R FOG
SUMMERVILLE    FAIR      59  59 100 CALM      29.90R
BEAUFORT MCAS  CLEAR     66  65  96 S3        29.89R
BEAUFORT ARPT  FAIR      64  63  94 CALM      29.90R
HILTON HEAD IS PTCLDY    61  61 100 CALM      29.90R
WALTERBORO     FOG       57  57 100 CALM      29.91R VSB<1/4
ALLENDALE      FAIR      61  61 100 CALM      29.89R

...SOUTHERN MIDLANDS AND PEE DEE...

CITY           SKY/WX    TMP DP  RH WIND       PRES   REMARKS
GEORGETOWN     FAIR      61  61 100 CALM      29.91R
KINGSTREE      FAIR      61  59  94 CALM      29.89R
ORANGEBURG     CLEAR     60  59  96 SW5       29.89R
BARNWELL       FAIR      63  61  94 CALM      29.90R
AIKEN          FAIR      59  57  94 SW5       29.93R
MANNING        FAIR      64  61  88 SW14G20   29.88R
COLUMBIA       PTCLDY    62  59  90 SW5       29.87R
SUMTER         NOT AVBL
FLORENCE       CLEAR     60  60 100 S6        29.87S
MYRTLE BEACH   CLEAR     68  64  88 SW7       29.90S
N MYRTLE BEACH CLEAR     69  67  93 S8        29.90R

$$

GAZ063-065-086>088-099>101-113>116-118-119-134>141-150-271200-
...SOUTHEAST GEORGIA...

CITY           SKY/WX    TMP DP  RH WIND       PRES   REMARKS
SAVANNAH ARPT  PTCLDY    63  60  90 S5        29.89R
HUNTER AAF     NOT AVBL
FORT STEWART   NOT AVBL
STATESBORO     PTCLDY    59  59 100 CALM      29.90R
SYLVANIA       MOSUNNY  N/A N/A N/A CALM      29.91R
CLAXTON        PTSUNNY  N/A N/A N/A CALM      29.90R

...CSRA...CENTRAL AND FAR SOUTHEAST GEORGIA...

CITY           SKY/WX    TMP DP  RH WIND       PRES   REMARKS
THOMSON        PTCLDY    60  56  87 W3        29.93R
AUGUSTA-BUSH   CLEAR     57  56  96 SE3       29.87R
AUGUSTA-DANIEL CLEAR     63  56  78 CALM      29.88R
SWAINSBORO     FAIR      61  59  94 SE5       29.89R
VIDALIA        CLOUDY    63  57  82 S5        29.89R
EASTMAN        CLOUDY    63  63 100 CALM      29.91R
HAZLEHURST     CLOUDY    66  62  86 S6        29.88R
ALMA           CLOUDY    64  59  83 SE6       29.87R
WAYCROSS       PTCLDY    67  62  85 S5        29.90R HAZE
JESUP          CLOUDY    61  57  88 CALM      29.90R
BAXLEY         CLOUDY    64  64 100 CALM      29.89R
BRUNSWICK      MOCLDY    68  64  88 CALM      29.91R
SAINT SIMONS   PTCLDY    72  64  76 S6        29.89R

$$

SCZ027-028-034-036>038-045-046-048>050-GAZ119-141-271200-
...LAKE AND SUPPLEMENTAL COASTAL OBSERVATIONS...

STATION/POSITION TIME  TEMP    WIND        PRES    WAVE   SWELL
                       AIR SEA DIR/SP/G            HT/PER HT/PER/DIR
                 (UTC) (F)     (DEG/KT/KT) (MB)    (FT/S) (FT/S/D)
WINYAH BAY       1045   67     210/  1     1012.0S
LAKE MURRAY      1020   65     240/  5/  7 1010.5
ACE BASIN NERRS  1030   65        CALM     1012.0S
FORT PULASKI     1100   68 74  250/  1/  2 1012.5
SAPELO ISLAND    1045   66     160/  4     1012.0S

$$

ANZ835-935-AMZ111-154-330-350-352-354-370-450-454-472-271200-
...C-MAN AND BUOY OBSERVATIONS...

STATION/POSITION TIME  TEMP    WIND        PRES    WAVE   SWELL
                       AIR SEA DIR/SP/G            HT/PER HT/PER/DIR
                 (UTC) (F)     (DEG/KT/KT) (MB)    (FT/S) (FT/S/D)
BUOY 41004       1110   73 73  200/  8/ 12 1012.4
BUOY 41008       1050   72 72  180/ 12/ 14 1011.8R   4/ 5   3/170/ 5
FOLLY BEACH CMAN 1000   71     210/ 13/ 15 1012.6R
CAPERS NEARSHORE 1108   74 72  210/ 10/ 16 1012.1R
FRIPP NEARSHORE  1108   71 71  200/ 10/ 14 1011.9R


STATION/POSITION TIME  TEMP    WIND        PRES    WAVE   SWELL
                       AIR SEA DIR/SP/G            HT/PER HT/PER/DIR
                 (UTC) (F)     (DEG/KT/KT) (MB)    (FT/S) (FT/S/D)
5E ST. MARYS GA  1100      73                N/A     4/ 8   2/110/12
FRYING PAN BUOY  1110   73 73  230/  8/  8 1012.9
BUOY 41025       1050   76 77  240/ 14/ 17 1013.7R   6/ 9   5/150/ 9
CAPE LOOKOUT NC  1000   69     240/  5/  6 1012.8R
BUOY 41002       1050   74 74  170/ 14/ 16 1015.5R   5/ 8   5/120/ 8
BUOY 41010       1110   76 78  160/ 16/ 19 1014.1
ST AUGUSTINE FL  1000   67 74  210/  6/  7 1013.3R


$$




USA.gov is the U.S. government's official web portal to all federal, state and local government web resources and services.